OEO1411 EFHK-EDDF

Flight info

Callsign OEO1411
Flight time 2h 8m
Altitude 40000
Route NUNTO Y369 REKDO DCT KOSKA DCT BIKRU DCT HLZ DCT RIMET/N0487F310 T157 KOKEB/N0441F230 T157 KERAX KERAX5A
Aircraft A359/H-SDE2E3GHIJ3J4J5LM1ORWXY/LB1D1

Departure

Time 2026-05-06 18:51
Airport Helsinki Vantaa Airport (EFHK)

Arrival

Time 2026-05-06 21:00
Airport Frankfurt Main Airport (EDDF)
Time Latitude Longitude Altitude Speed Heading
2026-05-06 18:10 60.31515 24.95707 173 ft 0 kts 137°
2026-05-06 18:38 60.31525 24.95687 173 ft 4 kts 137°
2026-05-06 18:39 60.31545 24.95650 173 ft 4 kts 137°
2026-05-06 18:39 60.31560 24.95622 173 ft 4 kts 111°
2026-05-06 18:39 60.31557 24.95585 173 ft 4 kts 49°
2026-05-06 18:40 60.31529 24.95523 173 ft 0 kts 47°
2026-05-06 18:44 60.31558 24.95588 173 ft 11 kts 48°
2026-05-06 18:44 60.31618 24.95664 173 ft 9 kts 355°
2026-05-06 18:44 60.31675 24.95587 173 ft 11 kts 318°
2026-05-06 18:44 60.31743 24.95567 176 ft 9 kts 28°
2026-05-06 18:45 60.31799 24.95675 176 ft 13 kts 47°
2026-05-06 18:45 60.31870 24.95831 175 ft 14 kts 47°
2026-05-06 18:45 60.31927 24.95944 176 ft 10 kts 34°
2026-05-06 18:45 60.31983 24.95924 178 ft 9 kts 321°
2026-05-06 18:46 60.32031 24.95834 180 ft 10 kts 318°
2026-05-06 18:46 60.32113 24.95685 179 ft 24 kts 319°
2026-05-06 18:46 60.32242 24.95447 181 ft 26 kts 317°
2026-05-06 18:46 60.32335 24.95291 183 ft 10 kts 326°
2026-05-06 18:47 60.32406 24.95230 193 ft 12 kts 341°
2026-05-06 18:47 60.32493 24.95172 194 ft 14 kts 341°
2026-05-06 18:47 60.32595 24.95107 201 ft 17 kts 342°
2026-05-06 18:47 60.32719 24.95028 199 ft 21 kts 342°
2026-05-06 18:48 60.32872 24.94925 181 ft 25 kts 337°
2026-05-06 18:48 60.32990 24.94742 199 ft 20 kts 318°
2026-05-06 18:48 60.33075 24.94572 207 ft 16 kts 315°
2026-05-06 18:48 60.33111 24.94402 209 ft 14 kts 253°
2026-05-06 18:49 60.33068 24.94288 209 ft 0 kts 225°
2026-05-06 18:50 60.32999 24.94140 209 ft 49 kts 228°
2026-05-06 18:50 60.32589 24.93235 196 ft 123 kts 228°
2026-05-06 18:51 60.31880 24.91700 412 ft 161 kts 227°
2026-05-06 18:51 60.31150 24.90077 1398 ft 152 kts 233°
2026-05-06 18:51 60.30731 24.88182 2259 ft 152 kts 262°
2026-05-06 18:51 60.30750 24.86031 2845 ft 156 kts 284°
2026-05-06 18:52 60.30792 24.83816 3509 ft 161 kts 264°
2026-05-06 18:52 60.30567 24.81580 4141 ft 165 kts 259°
2026-05-06 18:52 60.30355 24.79203 4610 ft 184 kts 264°
2026-05-06 18:52 60.30079 24.76507 4980 ft 210 kts 254°
2026-05-06 18:53 60.29530 24.73552 5315 ft 239 kts 248°
2026-05-06 18:53 60.28885 24.70339 5985 ft 252 kts 248°
2026-05-06 18:53 60.28210 24.67023 6867 ft 260 kts 246°
2026-05-06 18:53 60.27493 24.63640 7783 ft 265 kts 248°
2026-05-06 18:54 60.26787 24.60196 8853 ft 267 kts 248°
2026-05-06 18:54 60.26080 24.56729 9930 ft 269 kts 249°
2026-05-06 18:54 60.25367 24.53237 10923 ft 270 kts 249°
2026-05-06 18:54 60.24645 24.49736 11929 ft 272 kts 248°
2026-05-06 18:55 60.23812 24.46269 12786 ft 282 kts 244°
2026-05-06 18:55 60.22853 24.42652 13263 ft 303 kts 243°
2026-05-06 18:55 60.21814 24.38803 13716 ft 323 kts 243°
2026-05-06 18:55 60.20716 24.34743 14237 ft 336 kts 243°
2026-05-06 18:56 60.19590 24.30586 15004 ft 341 kts 243°
2026-05-06 18:56 60.18452 24.26386 15886 ft 343 kts 243°
2026-05-06 18:56 60.17307 24.22164 16806 ft 345 kts 243°
2026-05-06 18:56 60.16157 24.17936 17778 ft 346 kts 242°
2026-05-06 18:57 60.14996 24.13677 18697 ft 348 kts 242°
2026-05-06 18:57 60.13832 24.09409 19513 ft 350 kts 242°
2026-05-06 18:57 60.12658 24.05111 20330 ft 352 kts 242°
2026-05-06 18:57 60.11477 24.00790 21138 ft 354 kts 242°
2026-05-06 18:58 60.10299 23.96429 21923 ft 357 kts 242°
2026-05-06 18:58 60.09138 23.92025 22776 ft 359 kts 243°
2026-05-06 18:58 60.07978 23.87573 23592 ft 361 kts 243°
2026-05-06 18:58 60.06817 23.83104 24211 ft 364 kts 243°
2026-05-06 18:59 60.05639 23.78576 24726 ft 370 kts 242°
2026-05-06 18:59 60.04436 23.73970 25282 ft 375 kts 242°
2026-05-06 18:59 60.03221 23.69339 25915 ft 378 kts 242°
2026-05-06 18:59 60.01993 23.64677 26547 ft 380 kts 242°
2026-05-06 19:00 60.00754 23.59987 27161 ft 383 kts 242°
2026-05-06 19:00 59.99505 23.55265 27796 ft 386 kts 241°
2026-05-06 19:00 59.98243 23.50510 28387 ft 389 kts 241°
2026-05-06 19:00 59.96970 23.45722 28968 ft 392 kts 241°
2026-05-06 19:01 59.95688 23.40908 29527 ft 395 kts 241°
2026-05-06 19:01 59.94388 23.36042 30070 ft 398 kts 241°
2026-05-06 19:01 59.93099 23.31226 30517 ft 401 kts 241°
2026-05-06 19:01 59.91759 23.26231 30967 ft 404 kts 240°
2026-05-06 19:02 59.90444 23.21339 31390 ft 407 kts 240°
2026-05-06 19:02 59.89102 23.16354 31803 ft 410 kts 240°
2026-05-06 19:02 59.87749 23.11343 32148 ft 413 kts 239°
2026-05-06 19:02 59.86375 23.06269 32327 ft 420 kts 239°
2026-05-06 19:03 59.84982 23.01132 32683 ft 423 kts 239°
2026-05-06 19:03 59.83579 22.95968 33082 ft 425 kts 239°
2026-05-06 19:03 59.82176 22.90817 33651 ft 422 kts 239°
2026-05-06 19:03 59.80787 22.85719 34307 ft 417 kts 239°
2026-05-06 19:04 59.79404 22.80659 34640 ft 418 kts 239°
2026-05-06 19:04 59.78007 22.75563 34857 ft 422 kts 239°
2026-05-06 19:04 59.76598 22.70438 35139 ft 423 kts 239°
2026-05-06 19:04 59.75185 22.65311 35424 ft 425 kts 239°
2026-05-06 19:05 59.73763 22.60159 35692 ft 426 kts 239°
2026-05-06 19:05 59.72336 22.55003 35969 ft 428 kts 239°
2026-05-06 19:05 59.70882 22.49756 36244 ft 429 kts 240°
2026-05-06 19:05 59.69507 22.44810 36499 ft 431 kts 240°
2026-05-06 19:06 59.68058 22.39608 36757 ft 432 kts 240°
2026-05-06 19:06 59.66581 22.34315 37024 ft 434 kts 240°
2026-05-06 19:06 59.65119 22.29089 37276 ft 435 kts 240°
2026-05-06 19:06 59.63650 22.23852 37531 ft 436 kts 240°
2026-05-06 19:07 59.62177 22.18611 37786 ft 437 kts 240°
2026-05-06 19:07 59.61196 22.15125 37954 ft 438 kts 240°
2026-05-06 19:07 59.59230 22.08160 38272 ft 440 kts 240°
2026-05-06 19:07 59.57735 22.02879 38537 ft 441 kts 240°
2026-05-06 19:08 59.56239 21.97606 38762 ft 442 kts 241°
2026-05-06 19:08 59.54731 21.92302 38923 ft 444 kts 240°
2026-05-06 19:08 59.53219 21.86999 39100 ft 444 kts 240°
2026-05-06 19:08 59.51702 21.81688 39299 ft 445 kts 240°
2026-05-06 19:09 59.50182 21.76382 39464 ft 445 kts 240°
2026-05-06 19:09 59.48657 21.71070 39639 ft 446 kts 240°
2026-05-06 19:09 59.47129 21.65757 39831 ft 446 kts 240°
2026-05-06 19:09 59.45596 21.60441 39985 ft 447 kts 240°
2026-05-06 19:10 59.44061 21.55128 40025 ft 448 kts 240°
2026-05-06 19:10 59.40979 21.44501 40021 ft 447 kts 240°
2026-05-06 19:11 59.37888 21.33895 40024 ft 448 kts 240°
2026-05-06 19:11 59.34790 21.23312 40020 ft 448 kts 240°
2026-05-06 19:12 59.31684 21.12751 40002 ft 448 kts 240°
2026-05-06 19:12 59.28563 21.02186 40034 ft 448 kts 240°
2026-05-06 19:13 59.25435 20.91644 40020 ft 449 kts 240°
2026-05-06 19:13 59.22290 20.81095 40020 ft 449 kts 240°
2026-05-06 19:14 59.19058 20.70669 40022 ft 449 kts 235°
2026-05-06 19:14 59.14916 20.61554 40019 ft 450 kts 225°
2026-05-06 19:15 59.10316 20.53248 40009 ft 451 kts 223°
2026-05-06 19:15 59.05662 20.45159 40020 ft 452 kts 223°
2026-05-06 19:16 59.00983 20.36996 40018 ft 452 kts 223°
2026-05-06 19:16 58.96322 20.28826 40017 ft 452 kts 224°
2026-05-06 19:17 58.91658 20.20658 40018 ft 452 kts 223°
2026-05-06 19:17 58.86989 20.12510 40009 ft 452 kts 223°
2026-05-06 19:18 58.82311 20.04381 40007 ft 452 kts 223°
2026-05-06 19:18 58.77622 19.96263 40008 ft 453 kts 223°
2026-05-06 19:19 58.72932 19.88176 40020 ft 453 kts 223°
2026-05-06 19:19 58.68243 19.80121 40015 ft 452 kts 223°
2026-05-06 19:20 58.63546 19.72080 40002 ft 452 kts 223°
2026-05-06 19:20 58.58848 19.64069 40005 ft 452 kts 223°
2026-05-06 19:21 58.54138 19.56068 40004 ft 452 kts 223°
2026-05-06 19:21 58.50221 19.49436 40020 ft 452 kts 223°
2026-05-06 19:22 58.45502 19.41475 40014 ft 452 kts 223°
2026-05-06 19:22 58.40013 19.32251 40009 ft 453 kts 223°
2026-05-06 19:23 58.36043 19.25605 40005 ft 453 kts 223°
2026-05-06 19:23 58.31302 19.17690 40000 ft 453 kts 223°
2026-05-06 19:24 58.26578 19.09765 40004 ft 453 kts 223°
2026-05-06 19:24 58.21837 19.01847 40003 ft 454 kts 223°
2026-05-06 19:25 58.17083 18.93980 39988 ft 454 kts 223°
2026-05-06 19:25 58.12340 18.86182 39998 ft 455 kts 223°
2026-05-06 19:26 58.07551 18.78367 40004 ft 455 kts 222°
2026-05-06 19:26 58.02719 18.70532 40004 ft 455 kts 222°
2026-05-06 19:27 57.97953 18.62803 40016 ft 455 kts 222°
2026-05-06 19:27 57.93154 18.55031 39992 ft 455 kts 222°
2026-05-06 19:28 57.88359 18.47288 39993 ft 455 kts 222°
2026-05-06 19:28 57.83552 18.39557 39994 ft 455 kts 222°
2026-05-06 19:29 57.78735 18.31838 39995 ft 455 kts 222°
2026-05-06 19:29 57.73916 18.24144 39994 ft 455 kts 222°
2026-05-06 19:30 57.69094 18.16474 39981 ft 456 kts 221°
2026-05-06 19:30 57.64257 18.08808 39994 ft 456 kts 221°
2026-05-06 19:31 57.59421 18.01170 39991 ft 456 kts 221°
2026-05-06 19:31 57.52147 17.89734 39991 ft 456 kts 221°
2026-05-06 19:32 57.47290 17.82134 39990 ft 456 kts 221°
2026-05-06 19:32 57.42443 17.74575 39988 ft 456 kts 221°
2026-05-06 19:33 57.37580 17.67018 39991 ft 456 kts 221°
2026-05-06 19:33 57.32741 17.59526 39985 ft 456 kts 221°
2026-05-06 19:34 57.27868 17.52008 39985 ft 456 kts 221°
2026-05-06 19:34 57.22992 17.44512 39983 ft 456 kts 221°
2026-05-06 19:35 57.18109 17.37031 39985 ft 457 kts 221°
2026-05-06 19:35 57.13211 17.29555 39982 ft 457 kts 221°
2026-05-06 19:36 57.08318 17.22113 39987 ft 457 kts 221°
2026-05-06 19:36 57.03416 17.14684 39982 ft 457 kts 221°
2026-05-06 19:37 56.98511 17.07275 39982 ft 457 kts 221°
2026-05-06 19:37 56.93598 16.99881 39979 ft 457 kts 221°
2026-05-06 19:38 56.88717 16.92561 39983 ft 457 kts 220°
2026-05-06 19:38 56.83800 16.85212 39980 ft 457 kts 220°
2026-05-06 19:39 56.78875 16.77878 39968 ft 457 kts 220°
2026-05-06 19:39 56.73950 16.70570 39987 ft 457 kts 220°
2026-05-06 19:40 56.69015 16.63270 39986 ft 457 kts 220°
2026-05-06 19:40 56.64075 16.55991 39991 ft 457 kts 220°
2026-05-06 19:41 56.59136 16.48738 39991 ft 457 kts 220°
2026-05-06 19:41 56.54186 16.41493 39983 ft 457 kts 220°
2026-05-06 19:42 56.49233 16.34269 39991 ft 457 kts 220°
2026-05-06 19:42 56.44277 16.27065 39989 ft 457 kts 220°
2026-05-06 19:43 56.39316 16.19881 39984 ft 457 kts 220°
2026-05-06 19:43 56.34353 16.12716 39983 ft 457 kts 220°
2026-05-06 19:44 56.29382 16.05565 39975 ft 457 kts 220°
2026-05-06 19:44 56.24411 15.98438 39979 ft 457 kts 220°
2026-05-06 19:45 56.19431 15.91324 39983 ft 457 kts 220°
2026-05-06 19:45 56.14447 15.84228 39980 ft 457 kts 220°
2026-05-06 19:46 56.09460 15.77150 39969 ft 457 kts 219°
2026-05-06 19:46 56.04469 15.70093 39973 ft 457 kts 219°
2026-05-06 19:47 55.99471 15.63049 39974 ft 458 kts 219°
2026-05-06 19:47 55.94501 15.56068 39978 ft 458 kts 219°
2026-05-06 19:48 55.89493 15.49057 39976 ft 458 kts 219°
2026-05-06 19:48 55.84482 15.42066 39979 ft 458 kts 219°
2026-05-06 19:49 55.79466 15.35096 39978 ft 458 kts 219°
2026-05-06 19:49 55.74444 15.28141 39973 ft 458 kts 219°
2026-05-06 19:50 55.69415 15.21194 39975 ft 458 kts 219°
2026-05-06 19:50 55.64385 15.14269 39977 ft 458 kts 219°
2026-05-06 19:51 55.59347 15.07357 39965 ft 458 kts 219°
2026-05-06 19:51 55.54310 15.00469 39962 ft 458 kts 219°
2026-05-06 19:52 55.49267 14.93593 39974 ft 458 kts 219°
2026-05-06 19:52 55.44218 14.86732 39974 ft 458 kts 219°
2026-05-06 19:53 55.39165 14.79890 39956 ft 458 kts 219°
2026-05-06 19:53 55.34105 14.73062 39967 ft 458 kts 219°
2026-05-06 19:54 55.29050 14.66263 39967 ft 458 kts 219°
2026-05-06 19:54 55.23990 14.59481 39967 ft 458 kts 219°
2026-05-06 19:55 55.18924 14.52712 39965 ft 458 kts 219°
2026-05-06 19:55 55.13888 14.46006 39965 ft 458 kts 218°
2026-05-06 19:56 55.08818 14.39275 39964 ft 458 kts 218°
2026-05-06 19:56 55.03737 14.32552 39969 ft 458 kts 218°
2026-05-06 19:57 54.98645 14.25837 39971 ft 459 kts 218°
2026-05-06 19:57 54.93551 14.19142 39956 ft 459 kts 218°
2026-05-06 19:58 54.88493 14.12382 39960 ft 458 kts 220°
2026-05-06 19:58 54.83589 14.05325 39955 ft 458 kts 221°
2026-05-06 19:59 54.78698 13.98238 39961 ft 458 kts 221°
2026-05-06 19:59 54.73786 13.91210 39958 ft 458 kts 220°
2026-05-06 20:00 54.68849 13.84255 39955 ft 458 kts 220°
2026-05-06 20:00 54.63910 13.77327 39955 ft 457 kts 220°
2026-05-06 20:01 54.58971 13.70409 39947 ft 457 kts 220°
2026-05-06 20:01 54.54029 13.63503 39949 ft 457 kts 220°
2026-05-06 20:02 54.49083 13.56612 39936 ft 457 kts 220°
2026-05-06 20:02 54.44157 13.49771 39944 ft 459 kts 220°
2026-05-06 20:03 54.39185 13.42888 39938 ft 459 kts 220°
2026-05-06 20:03 54.34211 13.36025 39937 ft 459 kts 220°
2026-05-06 20:04 54.29237 13.29160 39932 ft 459 kts 220°
2026-05-06 20:04 54.24271 13.22273 39932 ft 459 kts 220°
2026-05-06 20:05 54.19282 13.15434 39928 ft 460 kts 219°
2026-05-06 20:05 54.14268 13.08675 39928 ft 460 kts 219°
2026-05-06 20:06 54.09251 13.01909 39925 ft 460 kts 219°
2026-05-06 20:06 54.04243 12.95142 39914 ft 459 kts 219°
2026-05-06 20:07 53.99244 12.88394 39918 ft 459 kts 219°
2026-05-06 20:07 53.94240 12.81662 39916 ft 459 kts 219°
2026-05-06 20:08 53.89235 12.74950 39919 ft 459 kts 219°
2026-05-06 20:08 53.84225 12.68253 39915 ft 459 kts 219°
2026-05-06 20:09 53.79215 12.61578 39923 ft 458 kts 219°
2026-05-06 20:09 53.74192 12.54905 39912 ft 461 kts 219°
2026-05-06 20:10 53.69144 12.48220 39907 ft 461 kts 219°
2026-05-06 20:10 53.64096 12.41556 39909 ft 461 kts 219°
2026-05-06 20:11 53.59888 12.36019 39896 ft 461 kts 219°
2026-05-06 20:11 53.54838 12.29390 39901 ft 460 kts 218°
2026-05-06 20:12 53.48964 12.21707 39895 ft 460 kts 218°
2026-05-06 20:12 53.44723 12.16177 39893 ft 460 kts 218°
2026-05-06 20:13 53.39664 12.09598 39891 ft 460 kts 218°
2026-05-06 20:13 53.34603 12.03038 39891 ft 460 kts 218°
2026-05-06 20:14 53.29539 11.96494 39887 ft 460 kts 218°
2026-05-06 20:14 53.24501 11.90004 39882 ft 460 kts 218°
2026-05-06 20:15 53.19428 11.83487 39883 ft 460 kts 218°
2026-05-06 20:15 53.14348 11.76983 39877 ft 461 kts 218°
2026-05-06 20:16 53.09247 11.70471 39874 ft 462 kts 218°
2026-05-06 20:16 53.04142 11.63975 39885 ft 462 kts 218°
2026-05-06 20:17 52.99029 11.57488 39880 ft 462 kts 218°
2026-05-06 20:17 52.93913 11.51016 39875 ft 462 kts 218°
2026-05-06 20:18 52.88799 11.44567 39864 ft 462 kts 218°
2026-05-06 20:18 52.84882 11.39642 39867 ft 462 kts 218°
2026-05-06 20:19 52.79949 11.33454 39866 ft 462 kts 218°
2026-05-06 20:19 52.74818 11.27037 39870 ft 462 kts 218°
2026-05-06 20:20 52.69685 11.20637 39860 ft 462 kts 218°
2026-05-06 20:20 52.64555 11.14261 39860 ft 462 kts 218°
2026-05-06 20:21 52.59421 11.07897 39856 ft 462 kts 218°
2026-05-06 20:21 52.54288 11.01556 39863 ft 462 kts 218°
2026-05-06 20:22 52.49126 10.95198 39838 ft 464 kts 217°
2026-05-06 20:22 52.43992 10.88892 39841 ft 464 kts 217°
2026-05-06 20:23 52.38813 10.82591 39833 ft 464 kts 215°
2026-05-06 20:23 52.33084 10.77703 39830 ft 466 kts 203°
2026-05-06 20:24 52.26989 10.74052 39822 ft 467 kts 201°
2026-05-06 20:24 52.20839 10.70611 39829 ft 467 kts 200°
2026-05-06 20:25 52.14698 10.67177 39828 ft 467 kts 200°
2026-05-06 20:25 52.08557 10.63715 39828 ft 467 kts 201°
2026-05-06 20:26 52.02414 10.60246 39820 ft 467 kts 200°
2026-05-06 20:26 51.96281 10.56791 39821 ft 467 kts 200°
2026-05-06 20:27 51.90147 10.53345 39816 ft 467 kts 200°
2026-05-06 20:27 51.84012 10.49911 39816 ft 467 kts 200°
2026-05-06 20:28 51.77872 10.46484 39820 ft 467 kts 200°
2026-05-06 20:28 51.71737 10.43070 39821 ft 467 kts 200°
2026-05-06 20:29 51.65639 10.39687 39823 ft 466 kts 200°
2026-05-06 20:29 51.59498 10.36288 39806 ft 466 kts 200°
2026-05-06 20:30 51.50302 10.31217 39815 ft 465 kts 200°
2026-05-06 20:31 51.44181 10.27854 39816 ft 465 kts 200°
2026-05-06 20:31 51.38054 10.24497 39815 ft 465 kts 200°
2026-05-06 20:32 51.31758 10.22120 39815 ft 468 kts 187°
2026-05-06 20:32 51.25250 10.21657 39815 ft 469 kts 183°
2026-05-06 20:33 51.18716 10.21560 39812 ft 469 kts 182°
2026-05-06 20:33 51.12203 10.21494 39489 ft 468 kts 182°
2026-05-06 20:33 51.08941 10.21453 39267 ft 468 kts 182°
2026-05-06 20:34 51.05685 10.21402 39039 ft 468 kts 182°
2026-05-06 20:34 51.02423 10.21345 38809 ft 468 kts 182°
2026-05-06 20:34 50.99172 10.21287 38598 ft 467 kts 182°
2026-05-06 20:34 50.95921 10.21227 38352 ft 467 kts 182°
2026-05-06 20:35 50.92670 10.21168 38073 ft 466 kts 182°
2026-05-06 20:35 50.89435 10.21109 37794 ft 465 kts 182°
2026-05-06 20:35 50.86209 10.20819 37516 ft 463 kts 188°
2026-05-06 20:35 50.83045 10.19885 37243 ft 461 kts 196°
2026-05-06 20:36 50.80022 10.18238 36983 ft 459 kts 204°
2026-05-06 20:36 50.77208 10.15875 36728 ft 458 kts 212°
2026-05-06 20:36 50.74667 10.12836 36477 ft 458 kts 221°
2026-05-06 20:36 50.72467 10.09203 36214 ft 459 kts 230°
2026-05-06 20:37 50.70652 10.05064 35895 ft 459 kts 238°
2026-05-06 20:37 50.69267 10.00549 35283 ft 458 kts 246°
2026-05-06 20:37 50.68351 9.95720 34610 ft 460 kts 255°
2026-05-06 20:37 50.67907 9.90728 33922 ft 461 kts 261°
2026-05-06 20:38 50.67419 9.85748 33262 ft 457 kts 254°
2026-05-06 20:38 50.66574 9.80923 32710 ft 459 kts 247°
2026-05-06 20:38 50.65344 9.76256 32180 ft 463 kts 243°
2026-05-06 20:38 50.63767 9.71927 31665 ft 463 kts 232°
2026-05-06 20:39 50.61607 9.68180 31152 ft 463 kts 219°
2026-05-06 20:39 50.58982 9.65299 30376 ft 460 kts 207°
2026-05-06 20:39 50.56048 9.63244 29287 ft 462 kts 201°
2026-05-06 20:39 50.53108 9.61213 28324 ft 461 kts 204°
2026-05-06 20:40 50.50216 9.59101 27414 ft 451 kts 205°
2026-05-06 20:40 50.47410 9.57036 25961 ft 443 kts 204°
2026-05-06 20:40 50.44630 9.55000 24477 ft 439 kts 204°
2026-05-06 20:40 50.41880 9.52995 23085 ft 433 kts 205°
2026-05-06 20:41 50.39168 9.51025 21576 ft 427 kts 205°
2026-05-06 20:41 50.36517 9.49103 20652 ft 410 kts 205°
2026-05-06 20:41 50.33999 9.47281 20066 ft 387 kts 205°
2026-05-06 20:41 50.31632 9.45569 19551 ft 365 kts 205°
2026-05-06 20:42 50.29388 9.43949 19115 ft 345 kts 205°
2026-05-06 20:42 50.27234 9.42519 18547 ft 331 kts 198°
2026-05-06 20:42 50.24980 9.42129 17769 ft 327 kts 175°
2026-05-06 20:42 50.22817 9.43120 16903 ft 325 kts 152°
2026-05-06 20:43 50.21095 9.45338 16108 ft 321 kts 129°
2026-05-06 20:43 50.20076 9.48401 15343 ft 319 kts 106°
2026-05-06 20:43 50.19911 9.51814 14546 ft 318 kts 83°
2026-05-06 20:43 50.20627 9.55051 13772 ft 317 kts 59°
2026-05-06 20:44 50.22097 9.57567 12899 ft 315 kts 35°
2026-05-06 20:44 50.24070 9.58945 12062 ft 310 kts 10°
2026-05-06 20:44 50.26192 9.58994 11279 ft 303 kts 348°
2026-05-06 20:44 50.28129 9.57895 10453 ft 295 kts 324°
2026-05-06 20:45 50.29537 9.55677 9785 ft 282 kts 298°
2026-05-06 20:45 50.30126 9.52881 9212 ft 266 kts 272°
2026-05-06 20:45 50.30009 9.50042 8531 ft 259 kts 260°
2026-05-06 20:45 50.29548 9.47361 7942 ft 251 kts 246°
2026-05-06 20:46 50.28666 9.45127 7646 ft 236 kts 229°
2026-05-06 20:46 50.27438 9.43508 7463 ft 229 kts 212°
2026-05-06 20:46 50.25984 9.42617 7308 ft 222 kts 194°
2026-05-06 20:46 50.24452 9.42518 7098 ft 221 kts 176°
2026-05-06 20:47 50.22959 9.42667 6818 ft 210 kts 196°
2026-05-06 20:47 50.21720 9.41635 6555 ft 201 kts 219°
2026-05-06 20:47 50.20671 9.40186 6161 ft 203 kts 230°
2026-05-06 20:47 50.20006 9.38324 5790 ft 203 kts 252°
2026-05-06 20:48 50.19894 9.36145 5417 ft 204 kts 276°
2026-05-06 20:48 50.20386 9.34069 5053 ft 207 kts 300°
2026-05-06 20:48 50.21253 9.32273 4766 ft 205 kts 301°
2026-05-06 20:48 50.21875 9.30285 4707 ft 204 kts 287°
2026-05-06 20:49 50.22076 9.28128 4702 ft 201 kts 266°
2026-05-06 20:49 50.21708 9.26038 4699 ft 201 kts 243°
2026-05-06 20:49 50.20781 9.24410 4704 ft 203 kts 219°
2026-05-06 20:49 50.19776 9.22895 4698 ft 202 kts 238°
2026-05-06 20:50 50.19297 9.20884 4705 ft 200 kts 257°
2026-05-06 20:50 50.18972 9.18743 4707 ft 202 kts 257°
2026-05-06 20:50 50.18642 9.16600 4708 ft 204 kts 255°
2026-05-06 20:50 50.18335 9.14510 4708 ft 205 kts 256°
2026-05-06 20:51 50.18016 9.12338 4706 ft 206 kts 255°
2026-05-06 20:51 50.17601 9.10206 4706 ft 206 kts 250°
2026-05-06 20:51 50.17163 9.08079 4698 ft 206 kts 255°
2026-05-06 20:51 50.16885 9.05887 4732 ft 206 kts 258°
2026-05-06 20:52 50.16539 9.03724 4769 ft 206 kts 253°
2026-05-06 20:52 50.16086 9.01606 4796 ft 205 kts 250°
2026-05-06 20:52 50.15586 8.99522 4838 ft 205 kts 249°
2026-05-06 20:52 50.15088 8.97463 4854 ft 197 kts 250°
2026-05-06 20:53 50.14627 8.95522 4882 ft 187 kts 250°
2026-05-06 20:53 50.14179 8.93630 4903 ft 185 kts 250°
2026-05-06 20:53 50.13732 8.91752 4941 ft 185 kts 250°
2026-05-06 20:53 50.13284 8.89870 4961 ft 185 kts 250°
2026-05-06 20:54 50.12836 8.87988 4993 ft 185 kts 250°
2026-05-06 20:54 50.12387 8.86108 4898 ft 184 kts 250°
2026-05-06 20:54 50.11942 8.84238 4688 ft 183 kts 250°
2026-05-06 20:54 50.11503 8.82391 4404 ft 182 kts 250°
2026-05-06 20:55 50.11062 8.80539 4098 ft 183 kts 251°
2026-05-06 20:55 50.10619 8.78678 3831 ft 183 kts 251°
2026-05-06 20:55 50.10177 8.76822 3573 ft 183 kts 252°
2026-05-06 20:55 50.09734 8.74965 3335 ft 183 kts 252°
2026-05-06 20:56 50.09292 8.73112 3084 ft 183 kts 252°
2026-05-06 20:56 50.08851 8.71263 2832 ft 181 kts 252°
2026-05-06 20:56 50.08425 8.69476 2574 ft 169 kts 252°
2026-05-06 20:56 50.08029 8.67819 2382 ft 160 kts 253°
2026-05-06 20:57 50.07653 8.66237 2152 ft 156 kts 253°
2026-05-06 20:57 50.07286 8.64681 1941 ft 151 kts 253°
2026-05-06 20:57 50.06920 8.63185 1758 ft 143 kts 252°
2026-05-06 20:57 50.06581 8.61787 1501 ft 134 kts 254°
2026-05-06 20:58 50.06284 8.60477 1336 ft 126 kts 252°
2026-05-06 20:58 50.05954 8.59161 1131 ft 133 kts 252°
2026-05-06 20:58 50.05629 8.57845 991 ft 128 kts 253°
2026-05-06 20:58 50.05329 8.56563 818 ft 125 kts 253°
2026-05-06 20:59 50.05026 8.55266 663 ft 130 kts 250°
2026-05-06 20:59 50.04714 8.53936 480 ft 131 kts 250°
2026-05-06 20:59 50.04399 8.52628 364 ft 125 kts 253°
2026-05-06 20:59 50.04146 8.51546 336 ft 84 kts 249°
2026-05-06 21:00 50.03998 8.50927 331 ft 38 kts 250°
2026-05-06 21:00 50.03937 8.50672 326 ft 38 kts 248°
2026-05-06 21:00 50.03793 8.50320 321 ft 39 kts 224°
2026-05-06 21:00 50.03670 8.50190 324 ft 16 kts 184°
2026-05-06 21:01 50.03635 8.50304 329 ft 14 kts 76°
2026-05-06 21:01 50.03667 8.50455 330 ft 16 kts 71°
2026-05-06 21:01 50.03710 8.50625 331 ft 18 kts 68°
2026-05-06 21:01 50.03754 8.50817 335 ft 20 kts 70°
2026-05-06 21:02 50.03807 8.51029 338 ft 22 kts 71°
2026-05-06 21:02 50.03863 8.51269 347 ft 25 kts 69°
2026-05-06 21:02 50.03929 8.51540 353 ft 28 kts 70°
2026-05-06 21:02 50.04000 8.51835 355 ft 30 kts 69°
2026-05-06 21:03 50.04075 8.52149 355 ft 31 kts 70°
2026-05-06 21:03 50.04151 8.52472 358 ft 32 kts 70°
2026-05-06 21:03 50.04230 8.52801 360 ft 33 kts 70°
2026-05-06 21:03 50.04311 8.53139 367 ft 33 kts 70°
2026-05-06 21:04 50.04385 8.53456 380 ft 29 kts 74°
2026-05-06 21:04 50.04412 8.53767 382 ft 30 kts 84°
2026-05-06 21:04 50.04434 8.54107 382 ft 33 kts 85°
2026-05-06 21:04 50.04451 8.54420 377 ft 22 kts 89°
2026-05-06 21:05 50.04394 8.54671 372 ft 28 kts 129°
2026-05-06 21:05 50.04209 8.54831 366 ft 32 kts 161°
2026-05-06 21:05 50.04084 8.54901 360 ft 16 kts 161°
2026-05-06 21:05 50.04023 8.55023 366 ft 16 kts 83°
2026-05-06 21:06 50.04064 8.55200 365 ft 19 kts 69°
2026-05-06 21:06 50.04112 8.55407 367 ft 19 kts 70°
2026-05-06 21:06 50.04161 8.55611 364 ft 13 kts 70°
2026-05-06 21:06 50.04172 8.55656 367 ft 0 kts 69°
2026-05-06 21:07 50.04172 8.55657 367 ft 1 kts 70°
2026-05-06 21:07 50.04196 8.55761 364 ft 14 kts 70°
2026-05-06 21:07 50.04234 8.55920 361 ft 17 kts 69°
2026-05-06 21:08 50.04280 8.56113 365 ft 20 kts 69°
2026-05-06 21:08 50.04328 8.56314 368 ft 19 kts 69°
2026-05-06 21:08 50.04378 8.56523 369 ft 22 kts 70°
2026-05-06 21:08 50.04435 8.56760 367 ft 24 kts 69°
2026-05-06 21:09 50.04498 8.57023 365 ft 28 kts 69°
2026-05-06 21:09 50.04550 8.57239 370 ft 11 kts 69°
2026-05-06 21:09 50.04586 8.57349 371 ft 11 kts 43°
2026-05-06 21:09 50.04671 8.57399 366 ft 13 kts 14°
2026-05-06 21:10 50.04719 8.57419 368 ft 5 kts 18°
2026-05-06 21:10 50.04745 8.57450 371 ft 2 kts 42°
2026-05-06 21:10 50.04749 8.57456 371 ft 0 kts 43°
2026-05-06 21:10 50.04750 8.57457 371 ft 0 kts 43°